Regional Weather Roundup
Issued by NWS

Home | Current Version | Previous Version | Graphics & Text | Print | Product List | Glossary On
Versions: 1 2 3 4 5 6 7 8 9 10 11 12 13 14 15 16 17 18 19 20 21 22 23 24 25 26 27 28 29 30 31 32 33 34 35 36 37 38 39 40 41 42 43 44 45 46 47 48 49 50
000
ASUS45 KBOU 290907
RWRCO

WEATHER ROUNDUP FOR COLORADO
NATIONAL WEATHER SERVICE DENVER/BOULDER CO
300 AM MDT WED MAR 29 2017

NOTE: "FAIR" INDICATES FEW OR NO CLOUDS BELOW 12000 FEET WITH NO
SIGNIFICANT WEATHER AND/OR OBSTRUCTIONS TO VISIBILITY.

COZ001>005-013-030-031-291000-
...NORTHWEST COLORADO...

CITY           SKY/WX    TMP DP  RH WIND       PRES   REMARKS
CRAIG          FAIR      33  27  78 CALM      30.11S
HAYDEN         FAIR      28  23  80 SW6       30.09F WCI  22
MEEKER         MOCLDY    35  30  82 NE13      30.10R WCI  26
MOUNT WERNER   NOT AVBL
STEAMBOAT SPGS FAIR      32  29  90 E3        30.08S
WALDEN         NOT AVBL
$$

COZ006>008-011-291000-
...WEST CENTRAL VALLEYS...

CITY           SKY/WX    TMP DP  RH WIND       PRES   REMARKS
GRAND JUNCTION FAIR      39  32  76 E3        30.05R
MONTROSE       FAIR      39  31  72 N6        30.04R
EAGLE          CLOUDY    36  31  82 E3        30.08R
RIFLE          FAIR      39  31  72 SW5       30.04S
DELTA          FAIR      40  34  79 N9        30.00R
NUCLA          FAIR      39  30  70 W6        30.04R
$$

COZ017>023-064>068-291000-
...SOUTHWEST COLORADO...

CITY           SKY/WX    TMP DP  RH WIND       PRES   REMARKS
DURANGO        FAIR      35  33  92 E5        29.89R WCI  31
CORTEZ         FAIR      43  31  62 NW10G21   29.94R
PAGOSA SPRINGS FAIR      38  30  73 E3        29.90R
TELLURIDE      NOT AVBL
WOLF CREEK PAS CLOUDY    21  21 100 MISG      30.02R
$$

COZ009-010-012-014-032>034-037-058>063-291000-
...CENTRAL COLORADO...

CITY           SKY/WX    TMP DP  RH WIND       PRES   REMARKS
ASPEN          CLOUDY    34  30  85 CALM      30.04R
BUENA VISTA    MOCLDY    36  26  65 N10G17    30.01R
COPPER MTN     CLOUDY    25  19  80 MISG      30.07R
BERTHOUD PASS  SNOW      16   5  62 E6        30.09R VSB 1/4 WCI   7
COTTONWOOD PAS CLOUDY    32  27  80 CALM      30.04R
GUNNISON       FAIR      33  32  96 CALM      29.99R
KREMMLING      MOCLDY    39  30  70 N10       30.06F
LEADVILLE      MOCLDY    25  21  85 N12       30.03R WCI  14
MONARCH PASS   CLOUDY    21  19  93 NE35G40   30.08R WCI   2
SALIDA         CLOUDY    37  35  94 SE5       30.07R
SUNLIGHT       MOCLDY   N/A N/A N/A N8        30.12R
WILKERSON PASS CLOUDY   N/A N/A N/A NE9G21    30.07R FOG
$$

COZ069>075-291000-
...SAN LUIS VALLEY/SANGRE DE CRISTO MOUNTAINS...

CITY           SKY/WX    TMP DP  RH WIND       PRES   REMARKS
ALAMOSA        CLOUDY    37  33  85 NW8       29.91R
LA VETA PASS   NOT AVBL
SAGUACHE       CLOUDY    39  27  60 N15       29.96R
$$

COZ035-036-038>040-291000-
...NORTHERN COLORADO FRONT RANGE...

CITY           SKY/WX    TMP DP  RH WIND       PRES   REMARKS
DENVER INTL AP LGT SNOW  35  34  96 N13       30.08S FOG     WCI  26
DMNS CITY PARK   N/A     36  36  99 NE5G15    30.10S
AURORA         LGT RAIN  34  34 100 NE8       30.09R WCI  27
FRONT RANGE AP DRIZZLE   36  36 100 N10       30.09R
ERIE MUNI ARPT RAIN      38  37  95 N7        30.11R
BOULDER MUN AP CLOUDY    37  36  93 N10       30.10R
CENTENNIAL     LGT SNOW  33 N/A N/A N7        30.08R VSB 1   WCI  27
BROOMFIELD     LGT RAIN  36  36 100 N9        30.10R
FORT COLLINS   LGT RAIN  39  36  89 NE5       30.11R
LONGMONT       CLOUDY    41  37  85 N5        30.13R
$$

COZ041-046-047-076>085-087-088-291000-
...PIKES PEAK/PALMER DIVIDE AND SOUTHERN FOOTHILLS...

CITY           SKY/WX    TMP DP  RH WIND       PRES   REMARKS
COLO. SPRINGS  CLOUDY    36  30  79 N12       30.04R
A. F. ACADEMY  NOT AVBL
SCHRIEVER AFB  CLOUDY    34  31  89 N15G22    30.03S WCI  24
ELLICOTT       CLOUDY   N/A N/A N/A NE18G25   30.00R
FALCON         CLOUDY    32  30  94 N13G18    30.03S WCI  22
FORT CARSON    CLOUDY    37  31  79 N16       30.02S
LIMON          LGT SNOW  32  32 100 N10       30.04R FOG     WCI  24
MONUMENT HILL  LGT SNOW  28  28 100 N9        30.07R WCI  20
TRINIDAD       FLURRIES  35  33  92 N15       29.95R WCI  25
$$

COZ042>045-048>051-090-091-291000-
...NORTHEAST COLORADO...

CITY           SKY/WX    TMP DP  RH WIND       PRES   REMARKS
GREELEY ARPT   CLOUDY    38  36  92 NE6       30.12R
AKRON          LGT RAIN  36  34  92 NE9       30.06R
BURLINGTON     CLOUDY    38  36  92 NE15      30.01R FOG
WRAY           NOT AVBL
STERLING       DRIZZLE   37  36  93 NE7       30.09R
HOLYOKE        DRIZZLE   41  37  87 NE8       30.07R
FORT MORGAN    CLOUDY    37  36  95 N9        30.09S
$$

COZ086-089-092>099-291000-
...SOUTHEAST COLORADO...

CITY           SKY/WX    TMP DP  RH WIND       PRES   REMARKS
PUEBLO         LGT RAIN  38  35  89 N12       30.02S FOG
LA JUNTA       LGT RAIN  40  37  89 N18       29.96F
LAMAR          CLOUDY    41  38  89 NE15      29.93F
SPRINGFIELD      N/A     37  37 100 N24G31    29.87F
$$



USA.gov is the U.S. government's official web portal to all federal, state and local government web resources and services.